Change the Weather History Date:

Tuesday, October 8, 2013

  Actual Average (KCLT) Record (KCLT)
Temperature  
Mean Temperature 60 °F 63 °F  
Max Temperature 67 °F 74 °F 93 °F (1941)
Min Temperature 54 °F 52 °F 34 °F (1889)
Degree Days  
Heating Degree Days 4 4  
Month to date heating degree days 26  
Since 1 July heating degree days 49  
Cooling Degree Days 0 2  
Month to date cooling degree days 19  
Year to date cooling degree days 1494  
Growing Degree Days 10 (Base 50)    
Moisture  
Dew Point 52 °F    
Average Humidity 78    
Maximum Humidity 95    
Minimum Humidity 55    
Precipitation  
Precipitation 0.56 in 0.12 in 3.82 in (1946)
Month to date precipitation 0.94  
Year to date precipitation 32.78  
Snow  
Snow 0.00 in 0.00 in 0.00 in ()
Month to date snowfall 0.0  
Since 1 July snowfall 0.0  
Since 1 September snowfall 0.0  
Snow Depth -    
Sea Level Pressure  
Sea Level Pressure 30.12 in    
Wind  
Wind Speed 8 mph (NNE)    
Max Wind Speed 16 mph    
Max Gust Speed 26 mph    
Visibility 9 miles    
Events Rain    
T = Trace of Precipitation, MM = Missing Value Source: NWS Daily Summary

Daily Weather History Graph

Daily Weather History Graph

Search for Another Location

Airport or City:

Trip Planner

Search our weather history database for the weather conditions in past years. The results will help you decide how hot, cold, wet, or windy it might be!

Date:

Astronomy

Oct. 08, 2013 Rise Set
Actual Time 7:20 AM EDT 6:54 PM EDT
Civil Twilight 6:55 AM EDT 7:19 PM EDT
Nautical Twilight 6:26 AM EDT 7:48 PM EDT
Astronomical Twilight 5:56 AM EDT 8:18 PM EDT
Moon 11:04 AM EDT (10/8) 9:38 PM EDT (10/8)
Length of Visible Light 12h 24m
Length of Day
11h 33m
Waxing Crescent, 16% of the Moon is Illuminated
Oct 8
Waxing Crescent
Oct 11
First Quarter
Oct 18
Full
Oct 26
Last Quarter
Nov 3
New

Hourly Weather History & Observations

Time (EDT) Temp. Dew Point Humidity Pressure Visibility Wind Dir Wind Speed Gust Speed Precip Events Conditions
12:15 AM 67.3 °F 57.2 °F 70% 29.98 in 10.0 mi North 9.2 mph - N/A   Overcast
12:35 AM 67.1 °F 54.9 °F 65% 29.99 in 10.0 mi North 6.9 mph - N/A   Overcast
12:55 AM 66.7 °F 54.9 °F 66% 29.99 in 10.0 mi North 5.8 mph - N/A   Overcast
1:15 AM 66.7 °F 54.3 °F 64% 30.00 in 10.0 mi North 6.9 mph - N/A   Overcast
1:35 AM 66.2 °F 52.7 °F 62% 30.00 in 10.0 mi North 8.1 mph - N/A   Light Drizzle
1:55 AM 66.0 °F 53.2 °F 63% 29.99 in 10.0 mi North 4.6 mph - N/A   Overcast
2:15 AM 65.5 °F 53.8 °F 66% 30.00 in 10.0 mi North 6.9 mph - N/A   Overcast
2:35 AM 65.3 °F 53.4 °F 65% 30.00 in 10.0 mi North 9.2 mph - N/A   Overcast
2:55 AM 65.3 °F 50.2 °F 58% 30.00 in 10.0 mi North 8.1 mph - N/A   Overcast
3:15 AM 64.9 °F 49.1 °F 56% 30.00 in 10.0 mi North 10.4 mph 16.1 mph N/A   Overcast
3:35 AM 64.8 °F 48.0 °F 55% 30.01 in 10.0 mi North 10.4 mph - N/A   Overcast
3:55 AM 64.4 °F 47.7 °F 55% 30.00 in 10.0 mi North 10.4 mph - N/A   Overcast
4:15 AM 64.0 °F 48.4 °F 57% 30.00 in 10.0 mi North 9.2 mph 17.3 mph N/A   Overcast
4:35 AM 63.5 °F 48.9 °F 59% 30.00 in 10.0 mi North 10.4 mph 17.3 mph N/A   Overcast
4:55 AM 63.5 °F 49.3 °F 60% 30.01 in 10.0 mi North 10.4 mph 21.9 mph N/A   Overcast
5:15 AM 63.1 °F 49.5 °F 61% 30.02 in 10.0 mi North 9.2 mph 17.3 mph N/A   Overcast
5:35 AM 63.0 °F 49.6 °F 62% 30.03 in 10.0 mi NNE 10.4 mph - N/A   Overcast
5:55 AM 62.8 °F 50.0 °F 63% 30.04 in 10.0 mi North 8.1 mph 16.1 mph N/A   Overcast
6:15 AM 62.6 °F 50.0 °F 63% 30.06 in 10.0 mi North 11.5 mph - N/A   Overcast
6:35 AM 62.2 °F 50.5 °F 65% 30.07 in 10.0 mi North 9.2 mph - N/A   Overcast
6:55 AM 62.1 °F 50.9 °F 67% 30.07 in 10.0 mi North 11.5 mph - N/A   Overcast
7:15 AM 62.1 °F 50.5 °F 66% 30.08 in 10.0 mi North 10.4 mph - N/A   Overcast
7:35 AM 62.1 °F 50.0 °F 65% 30.09 in 10.0 mi NNE 6.9 mph - N/A   Overcast
7:55 AM 62.2 °F 47.3 °F 58% 30.10 in 10.0 mi North 10.4 mph 16.1 mph N/A   Overcast
8:15 AM 62.1 °F 47.8 °F 60% 30.11 in 10.0 mi NNE 9.2 mph - N/A   Overcast
8:35 AM 61.7 °F 48.6 °F 62% 30.11 in 10.0 mi North 8.1 mph - N/A   Overcast
8:55 AM 61.7 °F 47.3 °F 59% 30.12 in 10.0 mi North 10.4 mph - N/A   Overcast
9:15 AM 61.3 °F 45.9 °F 57% 30.13 in 10.0 mi North 8.1 mph 18.4 mph N/A   Overcast
9:35 AM 60.8 °F 45.9 °F 58% 30.13 in 10.0 mi NNE 9.2 mph - N/A   Overcast
9:55 AM 60.6 °F 45.7 °F 58% 30.14 in 10.0 mi NNE 10.4 mph 16.1 mph N/A   Overcast
10:15 AM 58.6 °F 47.7 °F 67% 30.15 in 7.0 mi NNE 11.5 mph 26.5 mph N/A Rain Light Rain
10:35 AM 58.5 °F 47.5 °F 67% 30.16 in 10.0 mi NNE 13.8 mph 23.0 mph N/A   Overcast
10:55 AM 57.7 °F 48.6 °F 71% 30.16 in 10.0 mi NNE 16.1 mph 25.3 mph N/A   Overcast
11:15 AM 56.8 °F 50.2 °F 78% 30.17 in 7.0 mi North 11.5 mph 23.0 mph N/A Rain Light Rain
11:35 AM 55.4 °F 51.1 °F 85% 30.17 in 5.0 mi North 10.4 mph 17.3 mph 0.01 in   Drizzle
11:55 AM 55.2 °F 51.4 °F 87% 30.18 in 4.0 mi NNE 10.4 mph 17.3 mph 0.03 in Rain Rain
12:15 PM 55.2 °F 51.8 °F 88% 30.17 in 4.0 mi North 10.4 mph - 0.01 in Rain Light Rain
12:35 PM 55.6 °F 52.0 °F 88% 30.16 in 10.0 mi North 9.2 mph - 0.02 in Rain Light Rain
12:55 PM 56.3 °F 51.3 °F 83% 30.17 in 10.0 mi ENE 5.8 mph 17.3 mph 0.02 in Rain Light Rain
1:15 PM 55.9 °F 53.2 °F 91% 30.17 in 5.0 mi NNE 5.8 mph - N/A Rain Rain
1:35 PM 55.8 °F 52.9 °F 90% 30.16 in 4.0 mi NE 5.8 mph - 0.01 in Rain Rain
1:55 PM 55.4 °F 53.2 °F 92% 30.16 in 3.0 mi NNE 3.5 mph - 0.05 in Rain Heavy Rain
2:15 PM 55.4 °F 53.4 °F 93% 30.16 in 5.0 mi NE 5.8 mph - 0.02 in Rain Rain
2:35 PM 55.0 °F 53.2 °F 94% 30.15 in 4.0 mi North 8.1 mph - 0.08 in Rain Rain
2:55 PM 55.2 °F 53.1 °F 92% 30.16 in 4.0 mi NNE 5.8 mph - 0.13 in Rain Heavy Rain
3:15 PM 54.9 °F 52.9 °F 93% 30.16 in 5.0 mi North 4.6 mph - 0.05 in Rain Rain
3:35 PM 54.7 °F 52.7 °F 93% 30.16 in 4.0 mi NNE 4.6 mph - 0.12 in Rain Rain
3:55 PM 54.7 °F 52.9 °F 94% 30.16 in 5.0 mi NE 5.8 mph - 0.17 in Rain Rain
4:15 PM 54.9 °F 53.1 °F 94% 30.16 in 7.0 mi NNE 4.6 mph - 0.03 in Rain Rain
4:35 PM 55.0 °F 53.2 °F 94% 30.17 in 7.0 mi ENE 4.6 mph - 0.05 in Rain Rain
4:55 PM 55.0 °F 53.2 °F 94% 30.16 in 5.0 mi ENE 4.6 mph - 0.08 in Rain Rain
5:15 PM 55.0 °F 53.6 °F 95% 30.15 in 7.0 mi Calm Calm - 0.03 in Rain Light Rain
5:35 PM 55.2 °F 53.8 °F 95% 30.15 in 10.0 mi NNE 3.5 mph - 0.04 in   Overcast
5:55 PM 55.4 °F 54.0 °F 95% 30.15 in 10.0 mi NNE 3.5 mph - 0.04 in   Overcast
6:15 PM 55.6 °F 54.1 °F 95% 30.16 in 10.0 mi Calm Calm - N/A   Overcast
6:35 PM 55.8 °F 54.0 °F 94% 30.17 in 10.0 mi Calm Calm - N/A Rain Rain
6:55 PM 55.9 °F 54.1 °F 94% 30.17 in 5.0 mi NNE 5.8 mph - 0.01 in Rain Light Rain
7:15 PM 56.3 °F 54.0 °F 92% 30.18 in 7.0 mi Calm Calm - N/A   Drizzle
7:35 PM 56.5 °F 53.8 °F 91% 30.18 in 10.0 mi North 3.5 mph - 0.01 in   Overcast
7:55 PM 56.5 °F 54.5 °F 93% 30.18 in 10.0 mi North 5.8 mph - 0.01 in Rain Light Rain
8:15 PM 56.7 °F 54.5 °F 92% 30.18 in 10.0 mi Calm Calm - 0.01 in   Overcast
8:35 PM 56.7 °F 54.5 °F 92% 30.19 in 10.0 mi Calm Calm - 0.02 in   Overcast
8:55 PM 56.8 °F 54.9 °F 93% 30.18 in 10.0 mi North 4.6 mph - 0.02 in   Overcast
9:15 PM 57.0 °F 54.5 °F 91% 30.19 in 10.0 mi North 3.5 mph - N/A   Overcast
9:35 PM 57.0 °F 54.5 °F 91% 30.19 in 10.0 mi North 3.5 mph - N/A   Overcast
9:55 PM 57.2 °F 53.4 °F 87% 30.19 in 10.0 mi North 4.6 mph - N/A   Overcast
10:15 PM 56.7 °F 52.7 °F 87% 30.18 in 10.0 mi North 4.6 mph - N/A   Overcast
10:35 PM 56.3 °F 52.3 °F 87% 30.18 in 10.0 mi North 4.6 mph - N/A   Overcast
10:55 PM 55.8 °F 52.2 °F 88% 30.18 in 10.0 mi North 3.5 mph - N/A   Mostly Cloudy
11:15 PM 55.8 °F 51.8 °F 87% 30.18 in 10.0 mi North 4.6 mph - N/A   Mostly Cloudy
11:35 PM 55.8 °F 51.8 °F 87% 30.18 in 10.0 mi Calm Calm - N/A   Mostly Cloudy
11:55 PM 55.9 °F 51.4 °F 85% 30.17 in 10.0 mi North 3.5 mph - N/A   Mostly Cloudy